Weather History for Hagerstown, MD

Change the Weather History Date:

Tuesday, November 20, 2012

  Actual Average Record
Temperature  
Mean Temperature 39 °F -  
Max Temperature 49 °F 49 °F 64 °F (2011)
Min Temperature 29 °F 34 °F 19 °F (2000)
Degree Days  
Heating Degree Days 26    
Month to date heating degree days 446  
Moisture  
Dew Point 34 °F    
Average Humidity 78    
Maximum Humidity 100    
Minimum Humidity 56    
Precipitation  
Precipitation 0.00 in - - ()
Month to date precipitation 0.44  
Year to date precipitation 34.84  
Sea Level Pressure  
Sea Level Pressure 30.20 in    
Wind  
Wind Speed 1 mph (East)    
Max Wind Speed 7 mph    
Max Gust Speed 8 mph    
Visibility 5 miles    
Events Fog    
Averages and records for this station are not official NWS values.
T = Trace of Precipitation, MM = Missing Value Source: NWS Daily Summary

Daily Weather History Graph

Daily Weather History Graph

Search for Another Location

Airport:

Trip Planner

Search our weather history database for the weather conditions in past years. The results will help you decide how hot, cold, wet, or windy it might be!

Date:

Astronomy

Nov. 20, 2012 Rise Set
Actual Time 7:01 AM EST 4:51 PM EST
Civil Twilight 6:32 AM EST 5:20 PM EST
Nautical Twilight 5:59 AM EST 5:53 PM EST
Astronomical Twilight 5:27 AM EST 6:25 PM EST
Moon 12:35 PM EST No Moon Set
Length of Visible Light 10h 48m
Length of Day
9h 49m
Waxing Crescent, 51% of the Moon is Illuminated
Nov 20
Waxing Crescent
Nov 28
Full
Dec 6
Last Quarter
Dec 13
New
Dec 20
First Quarter

Hourly Weather History & Observations

Time (EST) Temp. Windchill Dew Point Humidity Pressure Visibility Wind Dir Wind Speed Gust Speed Precip Events Conditions
12:53 AM 34.0 °F 31.0 °F 32.0 °F 92% 30.26 in 5.0 mi NNW 3.5 mph - N/A   Clear
1:53 AM 35.1 °F - 33.1 °F 92% 30.25 in 6.0 mi Calm Calm - N/A   Clear
2:53 AM 34.0 °F - 30.9 °F 89% 30.25 in 6.0 mi Calm Calm - N/A   Clear
3:53 AM 34.0 °F - 32.0 °F 92% 30.24 in 6.0 mi Calm Calm - N/A   Clear
4:53 AM 34.0 °F - 32.0 °F 92% 30.23 in 5.0 mi Calm Calm - N/A   Clear
5:53 AM 33.1 °F - 30.9 °F 92% 30.24 in 5.0 mi Calm Calm - N/A   Clear
6:44 AM 30.2 °F 24.3 °F 30.2 °F 100% 30.19 in 1.8 mi ESE 5.8 mph - N/A   Partly Cloudy
6:47 AM 28.4 °F 22.2 °F 28.4 °F 100% 30.19 in 0.8 mi ESE 5.8 mph - N/A   Mist
6:53 AM 28.9 °F 25.2 °F 28.9 °F 100% 30.25 in 0.2 mi East 3.5 mph - N/A Fog Light Freezing Fog
7:10 AM 28.4 °F 24.6 °F 28.4 °F 100% 30.19 in 0.2 mi ESE 3.5 mph - N/A Fog Light Freezing Fog
7:53 AM 30.0 °F - 30.0 °F 100% 30.24 in 0.2 mi Calm Calm - N/A Fog Light Freezing Fog
8:08 AM 30.2 °F - 30.2 °F 100% 30.20 in 1.0 mi Calm Calm - N/A   Mist
8:21 AM 32.0 °F - 32.0 °F 100% 30.20 in 3.0 mi Calm Calm - N/A   Clear
8:53 AM 34.0 °F - 34.0 °F 100% 30.25 in 3.0 mi Calm Calm - N/A   Clear
9:48 AM 35.6 °F 31.7 °F 33.8 °F 93% 30.19 in 2.0 mi East 4.6 mph - N/A   Clear
9:53 AM 35.1 °F 32.2 °F 35.1 °F 100% 30.24 in 2.0 mi East 3.5 mph - N/A   Clear
10:53 AM 42.1 °F - 37.0 °F 82% 30.22 in 2.0 mi Calm Calm - N/A   Haze
11:53 AM 45.0 °F - 37.0 °F 74% 30.20 in 7.0 mi Calm Calm - N/A   Partly Cloudy
12:06 PM 46.4 °F - 37.4 °F 71% 30.15 in 7.0 mi Calm Calm - N/A   Mostly Cloudy
12:22 PM 46.4 °F - 35.6 °F 66% 30.14 in 8.0 mi Calm Calm - N/A   Scattered Clouds
12:53 PM 46.9 °F - 35.1 °F 63% 30.17 in 9.0 mi Calm Calm - N/A   Clear
1:53 PM 48.0 °F - 34.0 °F 58% 30.16 in 10.0 mi Calm Calm - N/A   Clear
2:53 PM 48.0 °F - 35.1 °F 61% 30.15 in 10.0 mi Calm Calm - N/A   Clear
3:53 PM 48.0 °F - 37.0 °F 66% 30.14 in 10.0 mi Calm Calm - N/A   Clear
4:53 PM 46.9 °F - 37.0 °F 68% 30.14 in 9.0 mi Calm Calm - N/A   Clear
5:53 PM 46.9 °F - 36.0 °F 66% 30.16 in 8.0 mi Calm Calm - N/A   Clear
6:53 PM 45.0 °F 40.1 °F 36.0 °F 71% 30.17 in 9.0 mi NNE 9.2 mph - N/A   Clear
7:53 PM 43.0 °F - 36.0 °F 76% 30.18 in 8.0 mi Calm Calm - N/A   Clear
8:53 PM 42.1 °F - 36.0 °F 79% 30.18 in 7.0 mi Calm Calm - N/A   Clear
9:53 PM 41.0 °F - 35.1 °F 79% 30.19 in 7.0 mi Calm Calm - N/A   Clear
10:53 PM 39.9 °F - 35.1 °F 83% 30.19 in 7.0 mi Calm Calm - N/A   Clear
11:53 PM 37.9 °F 35.5 °F 36.0 °F 93% 30.19 in 6.0 mi ENE 3.5 mph - N/A   Mostly Cloudy